Date,TemperatureHighF,TemperatureAvgF,TemperatureLowF,DewpointHighF,DewpointAvgF,DewpointLowF,HumidityHigh,HumidityAvg,HumidityLow,PressureMaxIn,PressureMinIn,WindSpeedMaxMPH,WindSpeedAvgMPH,GustSpeedMaxMPH,PrecipitationSumIn
2014-3-1,9.9,0.9,-4.5,4.5,-8.9,-17.3,78,63,52,30.63,30.26,8,3,15,0.00
2014-3-2,3.6,-5.0,-14.6,-9.9,-15.8,-23.3,73,59,48,30.69,30.60,10,2,10,0.00
2014-3-3,9.9,-0.8,-15.2,1.4,-8.3,-20.0,79,70,56,30.68,30.37,7,2,10,0.00
2014-3-4,19.8,13.5,7.5,10.2,6.5,0.9,81,73,64,30.39,30.27,7,2,9,0.00
2014-3-5,24.6,17.7,10.4,12.4,8.4,4.3,77,67,58,30.55,30.38,11,2,13,0.00
2014-3-6,28.0,20.1,10.8,21.9,13.8,3.7,83,76,63,30.45,29.91,17,6,21,0.00
2014-3-7,35.2,30.0,25.2,30.2,24.9,18.9,85,81,74,30.22,29.84,10,3,11,0.00
2014-3-8,31.8,23.2,14.5,19.0,14.8,10.0,84,71,44,30.38,30.22,7,1,10,0.00
2014-3-9,42.4,31.5,15.1,34.3,24.6,10.8,92,76,65,30.25,29.72,9,2,12,0.00
2014-3-10,54.7,43.6,33.3,38.5,34.8,30.0,89,72,51,29.73,29.65,7,1,11,0.00
2014-3-11,43.3,39.2,31.5,35.1,28.2,19.4,87,66,45,30.03,29.72,8,2,11,0.00
2014-3-12,31.5,25.2,18.7,19.8,13.7,9.5,72,61,51,30.18,30.03,8,2,11,0.00
2014-3-13,46.0,34.1,17.6,37.4,27.3,9.7,86,76,67,30.11,29.57,8,3,9,0.00
2014-3-14,44.4,38.6,28.4,35.2,29.7,17.4,82,71,57,29.99,29.54,13,3,18,0.00
2014-3-15,31.6,25.9,20.1,18.9,15.3,9.0,78,64,49,30.47,29.98,7,1,12,0.00
2014-3-16,25.7,18.3,8.1,12.7,6.6,0.0,70,60,46,30.57,30.12,10,2,12,0.00
2014-3-17,34.3,27.6,22.3,26.2,20.2,12.4,82,73,65,30.12,29.66,16,7,21,0.04
2014-3-18,37.2,32.6,28.9,30.4,25.1,20.8,92,74,67,29.83,29.69,7,2,15,0.12
2014-3-19,36.0,31.5,27.0,29.5,26.3,23.9,92,81,66,30.04,29.81,7,1,11,0.00
2014-3-20,43.2,32.2,20.8,31.8,25.9,17.8,92,78,59,30.09,29.96,5,1,9,0.00
2014-3-21,44.8,35.1,28.2,35.4,28.4,21.4,81,76,68,30.16,29.77,14,5,15,0.00
2014-3-22,27.9,17.5,10.0,21.0,6.9,1.8,75,63,51,30.58,30.16,12,4,14,0.00
2014-3-23,25.9,17.0,6.4,11.7,6.8,0.5,77,64,52,30.61,30.43,8,1,13,0.00
2014-3-24,31.3,22.2,12.9,27.3,15.1,8.6,92,75,48,30.45,30.17,11,2,15,0.02
2014-3-25,24.3,17.9,9.9,14.2,5.1,-0.6,70,57,45,30.36,30.17,10,3,15,0.00
2014-3-26,41.0,26.9,11.3,27.5,16.5,5.9,81,66,53,30.25,29.67,19,7,24,0.00
2014-3-27,40.8,36.3,30.9,36.5,33.4,27.5,95,90,59,29.75,29.49,17,4,20,0.57
2014-3-28,38.8,33.0,28.0,28.9,23.1,16.3,92,68,49,30.30,29.75,9,2,11,0.00
2014-3-29,42.6,32.9,19.8,27.9,21.0,14.2,80,62,46,30.34,30.15,10,2,12,0.00
2014-3-30,56.5,46.1,35.1,45.7,37.0,27.5,79,70,62,30.15,29.81,18,6,18,0.00
2014-3-31,58.3,48.2,30.9,48.9,40.2,27.1,91,74,64,29.81,29.38,20,8,23,0.05